Rome, NY

7:07 PM EST on November 18, 2019 (GMT -0500)
Griffiss

Weather History for KRME - September, 2019

Change the Weather History Date:

Sunday, September 22, 2019

  Actual Average Record
Temperature  
Mean Temperature 69 °F -  
Max Temperature 84 °F 67 °F 84 °F (2019)
Min Temperature 54 °F 50 °F 33 °F (1991)
Cooling Degree Days 4    
Growing Degree Days 19 (Base 50)    
Moisture  
Dew Point 62 °F    
Average Humidity 81    
Maximum Humidity 100    
Minimum Humidity 55    
Precipitation  
Precipitation 0.00 in - - ()
Sea Level Pressure  
Sea Level Pressure 30.05 in    
Wind  
Wind Speed 5 mph (SE)    
Max Wind Speed 10 mph    
Max Gust Speed -    
Visibility 10 miles    
Events      
Averages and records for this station are not official NWS values.
T = Trace of Precipitation, MM = Missing Value Source: NWS Daily Summary

Daily Weather History Graph

Daily Weather History Graph

Search for Another Location

Airport or City:

Astronomy

Sep. 22, 2019 Rise Set
Actual Time 6:48 AM EDT 6:59 PM EDT
Civil Twilight 6:20 AM EDT 7:27 PM EDT
Nautical Twilight 5:46 AM EDT 8:01 PM EDT
Astronomical Twilight 5:12 AM EDT 8:35 PM EDT
Moon No Moon Rise 3:02 PM EDT (9/22)
Length of Visible Light 13h 07m
Length of Day
12h 10m
Last Quarter, 44% of the Moon is Illuminated
Sep 22
Last Quarter
Sep 28
New
Oct 5
First Quarter
Oct 13
Full
Oct 21
Last Quarter

Hourly Weather History & Observations

Time (EDT) Temp. Heat Index Dew Point Humidity Pressure Visibility Wind Dir Wind Speed Gust Speed Precip Events Conditions
12:53 AM 55.0 °F - 54.0 °F 96% 30.18 in 10.0 mi ESE 3.5 mph - N/A   Clear
1:53 AM 55.9 °F - 55.0 °F 97% 30.17 in 10.0 mi SE 4.6 mph - N/A   Clear
2:53 AM 55.0 °F - 54.0 °F 96% 30.17 in 10.0 mi ESE 4.6 mph - N/A   Clear
3:53 AM 54.0 °F - 54.0 °F 100% 30.16 in 10.0 mi SE 4.6 mph - N/A   Clear
4:53 AM 54.0 °F - 53.1 °F 97% 30.14 in 10.0 mi SE 5.8 mph - N/A   Clear
5:53 AM 55.0 °F - 54.0 °F 96% 30.14 in 10.0 mi SE 5.8 mph - N/A   Clear
6:53 AM 55.0 °F - 54.0 °F 96% 30.15 in 10.0 mi SE 4.6 mph - N/A   Clear
7:53 AM 57.9 °F - 55.9 °F 93% 30.14 in 10.0 mi SE 5.8 mph - N/A   Clear
8:53 AM 63.0 °F - 57.0 °F 81% 30.13 in 10.0 mi SE 4.6 mph - N/A   Clear
9:53 AM 68.0 °F - 60.1 °F 76% 30.11 in 10.0 mi ESE 5.8 mph - N/A   Partly Cloudy
10:53 AM 72.0 °F - 63.0 °F 73% 30.10 in 10.0 mi Variable 5.8 mph - N/A   Clear
11:53 AM 77.0 °F - 64.0 °F 64% 30.08 in 10.0 mi ESE 5.8 mph - N/A   Partly Cloudy
12:53 PM 81.0 °F 83.0 °F 66.0 °F 60% 30.05 in 10.0 mi Calm Calm - N/A   Partly Cloudy
1:53 PM 82.0 °F 84.9 °F 68.0 °F 62% 30.03 in 10.0 mi Calm Calm - N/A   Clear
2:53 PM 82.9 °F 86.5 °F 69.1 °F 63% 30.00 in 10.0 mi Calm Calm - N/A   Mostly Cloudy
3:53 PM 84.9 °F 88.8 °F 69.1 °F 59% 29.98 in 10.0 mi SSW 6.9 mph - N/A   Scattered Clouds
4:53 PM 84.9 °F 87.6 °F 66.9 °F 55% 29.96 in 10.0 mi WSW 6.9 mph - N/A   Scattered Clouds
5:53 PM 82.0 °F 84.9 °F 68.0 °F 62% 29.95 in 10.0 mi SSW 10.4 mph - N/A   Partly Cloudy
6:53 PM 77.0 °F - 70.0 °F 79% 29.95 in 10.0 mi East 3.5 mph - N/A   Mostly Cloudy
7:53 PM 73.9 °F - 69.1 °F 85% 29.95 in 10.0 mi East 5.8 mph - N/A   Partly Cloudy
8:53 PM 73.0 °F - 69.1 °F 87% 29.94 in 10.0 mi ESE 6.9 mph - N/A   Clear
9:53 PM 73.0 °F - 66.9 °F 81% 29.93 in 10.0 mi East 5.8 mph - N/A   Clear
10:53 PM 70.0 °F - 66.9 °F 90% 29.92 in 10.0 mi East 4.6 mph - N/A   Clear
11:53 PM 68.0 °F - 66.0 °F 93% 29.91 in 10.0 mi East 3.5 mph - N/A   Clear